GFSSGP_925_rhum_144.txt.gz
RH
27 26 23 16 14 10 12 13 12 15 26 26 23 23 35 37 48 52 66 87 82 86 94 98 88 89 94 89 78 72 69 60 55 62 71 74 67 61 64 66 70 72 80 81 76 69 66 77 74
23 23 17 13 13 10 13 11 13 19 26 23 23 23 23 27 29 37 58 77 86 92 97 98 98 91 93 94 93 91 83 76 63 60 70 72 70 65 65 68 71 73 75 76 74 72 71 75 76
23 18 14 14 13 11 13 12 15 18 19 18 20 15 18 23 16 38 54 63 69 71 75 94 100 99 97 92 92 94 96 91 80 70 68 70 70 68 69 66 69 70 65 70 73 75 75 74 75
14 13 14 13 14 15 12 12 13 18 18 16 15 16 12 18 19 44 45 46 51 59 58 62 71 84 96 98 95 89 92 97 97 88 70 67 70 74 75 68 68 68 65 67 66 70 75 72 71
12 11 13 13 15 13 9 9 12 16 18 15 12 13 14 23 33 38 40 42 44 48 49 41 32 38 44 62 89 92 89 89 94 99 92 76 67 68 70 73 70 64 68 61 58 62 75 69 66
9 10 10 14 14 12 9 8 8 12 14 13 11 11 15 25 32 36 41 43 47 46 38 27 19 17 18 24 35 61 88 89 86 90 96 93 84 72 67 68 70 65 59 60 59 59 69 71 68
9 9 11 12 13 10 7 6 7 8 12 12 10 14 16 25 32 32 38 45 49 50 34 30 32 22 17 17 17 21 33 74 92 88 87 87 88 86 77 69 69 68 65 69 68 68 72 75 73
8 9 11 13 13 10 7 6 6 6 8 7 11 14 16 27 33 31 32 40 44 50 53 53 46 37 28 35 19 16 16 20 44 90 88 82 77 76 81 82 72 69 70 75 73 71 72 73 76
6 8 10 11 12 9 6 6 7 6 7 18 22 25 30 32 30 27 28 31 36 41 47 53 57 56 45 42 36 27 24 23 21 24 39 74 92 94 78 74 79 77 71 74 77 72 70 75 78
7 9 9 7 7 7 7 7 7 7 9 16 25 29 30 29 27 26 27 31 34 39 43 47 56 61 57 44 51 49 45 46 50 53 42 42 38 70 97 84 80 75 74 77 72 76 72 75 76
9 9 8 7 7 9 8 7 6 7 9 23 17 31 30 29 29 27 28 32 35 39 43 49 54 61 62 57 52 48 48 49 50 54 56 55 54 51 63 93 90 84 78 79 81 78 82 75 70
12 10 9 9 10 10 10 8 9 19 32 30 30 30 28 27 30 31 32 33 36 40 45 52 56 61 65 63 53 55 52 53 48 56 61 65 53 50 51 57 93 91 88 78 77 84 83 73 70
11 10 10 9 9 9 9 10 11 33 31 29 30 29 29 29 30 34 35 36 40 42 47 56 59 63 65 64 61 62 60 54 63 55 58 66 64 58 56 51 60 93 95 94 86 81 85 83 76
13 12 10 10 10 11 11 11 16 34 29 29 29 29 29 32 35 35 38 41 44 46 48 59 62 66 69 68 68 66 59 61 61 58 59 72 73 67 64 57 52 56 86 91 90 93 87 86 82
14 15 10 12 11 11 11 16 17 31 28 29 29 31 33 36 36 40 43 43 45 45 51 61 60 68 72 70 69 66 62 68 63 61 66 72 76 74 73 64 57 50 56 77 89 91 98 96 88
14 14 12 13 12 12 12 13 29 29 29 29 31 33 35 36 39 43 46 46 47 50 57 62 65 67 73 73 73 69 65 67 62 63 66 69 75 82 78 68 61 55 56 72 90 90 94 99 97
16 14 16 14 14 13 14 15 24 28 30 31 33 35 36 36 38 44 46 48 51 53 61 61 64 68 74 71 69 65 65 64 63 64 63 65 74 78 80 74 69 67 63 58 81 98 93 97 100
18 18 17 18 15 16 17 17 27 30 31 34 36 37 36 36 38 45 48 52 55 57 61 62 64 69 71 65 63 62 63 63 65 65 64 69 73 78 81 76 76 78 71 64 64 88 95 96 99
22 23 21 18 16 22 21 19 21 32 34 37 36 36 37 38 40 44 48 50 55 57 61 63 64 67 68 63 65 66 66 68 69 70 73 75 75 79 82 88 88 88 77 68 62 64 89 91 93
23 24 23 20 20 23 20 19 18 29 32 33 35 37 39 38 38 43 45 47 53 56 62 63 64 66 68 68 71 71 74 74 75 75 77 80 86 95 98 91 88 88 87 80 81 68 74 82 89
22 24 23 23 21 19 23 19 26 32 36 40 41 41 40 42 44 42 44 45 49 54 61 64 65 67 70 76 68 72 70 71 71 74 76 78 88 92 97 98 98 90 90 93 86 85 86 85 82
25 20 22 24 24 24 23 21 20 29 39 45 42 43 44 43 43 43 45 45 47 54 59 63 67 68 69 76 75 77 75 79 79 82 81 85 90 95 96 98 97 96 92 92 92 94 74 90 87
24 23 25 26 27 30 23 32 24 30 32 40 43 47 47 46 46 45 47 47 46 51 56 60 66 67 71 76 79 79 82 81 88 87 83 85 87 93 98 98 98 98 98 91 90 85 86 85 84
24 26 28 32 29 34 24 26 20 28 35 38 46 50 49 46 45 46 49 50 48 51 58 61 62 65 70 76 80 84 87 88 93 88 87 85 84 93 100 100 99 98 100 98 92 87 75 87 86
22 28 32 32 43 33 31 32 27 28 43 47 61 54 49 48 47 46 52 59 56 54 61 66 64 64 71 77 82 86 89 92 94 95 96 93 92 94 100 100 100 100 99 99 96 87 76 86 93
28 27 33 46 41 34 24 33 34 47 49 49 53 71 49 50 52 56 85 63 59 60 76 75 68 66 73 79 86 85 87 93 95 98 98 98 99 100 99 100 99 99 100 100 95 94 86 92 90
25 29 30 42 35 44 33 26 54 51 55 58 58 58 62 52 56 73 83 64 66 87 92 76 70 70 78 81 89 88 88 90 95 96 97 97 100 98 100 99 99 100 100 100 99 91 91 91 80
25 23 34 39 65 44 25 34 57 85 64 73 100 86 80 57 58 70 90 74 71 88 92 83 68 76 74 77 90 91 94 92 92 96 98 98 98 99 100 99 99 100 100 100 98 99 97 94 90
27 26 33 37 36 52 58 47 54 91 96 100 100 100 92 85 93 78 90 86 80 83 86 88 88 86 91 81 83 94 100 99 96 96 98 100 99 98 99 99 100 100 100 100 100 100 100 100 100
33 32 40 57 49 58 86 74 53 54 56 61 100 100 98 79 93 88 86 84 93 82 89 91 93 87 85 92 90 85 99 100 100 100 99 100 98 97 98 99 100 100 99 100 100 100 100 100 100

GFSSGP_925_rhum_150.txt.gz
RH
9 15 15 13 17 13 11 8 7 10 16 16 23 31 50 54 65 96 82 72 73 78 88 92 89 89 87 86 85 82 79 77 73 68 77 85 80 74 68 63 62 65 67 79 82 80 82 73 73
9 18 13 13 17 15 10 8 12 19 19 18 17 19 25 48 48 55 64 59 58 63 74 84 87 87 84 83 81 80 79 78 79 77 68 75 80 80 76 66 63 62 67 69 76 80 76 77 74
14 17 14 15 14 13 12 9 15 17 13 12 15 14 20 30 39 43 50 51 50 50 44 39 53 60 72 82 84 82 79 78 75 76 81 73 75 79 78 73 68 67 67 68 69 75 75 74 74
7 9 11 14 14 11 11 11 12 14 12 12 13 22 24 32 35 37 37 40 47 48 48 31 21 22 32 42 54 69 84 83 80 77 76 79 74 73 79 81 77 73 71 69 67 70 74 77 78
5 8 13 14 11 10 8 9 10 12 11 11 11 22 28 30 32 34 39 43 47 52 50 50 34 22 17 15 16 23 40 65 84 84 80 78 80 77 70 73 79 81 75 72 72 72 74 78 81
6 8 11 12 10 8 8 8 10 12 12 11 15 19 24 21 27 33 39 45 50 55 55 52 52 44 35 23 16 15 15 17 24 52 78 82 79 78 78 75 69 70 74 75 73 77 77 74 78
7 9 11 10 12 10 9 7 9 11 12 11 10 19 23 20 24 30 39 43 49 50 47 46 47 40 36 43 35 22 20 19 20 19 18 41 77 81 79 76 76 73 68 71 73 74 74 71 73
6 7 10 10 10 10 7 6 7 8 12 10 13 18 25 22 23 26 31 35 39 44 46 48 52 50 40 41 43 43 43 39 41 45 46 22 33 48 62 73 80 76 79 73 67 68 67 72 75
6 9 10 9 10 8 6 7 6 5 9 15 18 22 22 22 21 22 23 27 31 37 42 48 54 57 51 45 44 45 45 45 46 47 54 40 41 36 41 40 36 45 71 73 78 72 68 70 78
8 11 9 7 7 7 6 7 7 7 11 15 19 19 19 19 18 18 20 25 28 33 40 48 54 58 57 56 50 50 48 50 50 47 51 44 55 50 53 48 42 39 43 69 71 74 74 72 75
9 10 8 7 8 7 6 6 6 6 9 13 18 20 18 18 19 17 19 24 28 34 42 50 54 60 62 58 55 56 56 54 48 53 49 58 55 61 56 56 52 47 43 49 61 78 70 72 74
10 8 8 8 7 8 8 7 8 15 23 18 18 18 18 18 20 21 23 25 31 35 44 53 57 60 63 62 62 63 62 57 56 55 56 55 64 64 68 65 64 60 55 50 59 71 67 77 82
8 8 7 7 7 8 8 8 8 21 18 17 18 18 18 18 20 24 26 30 33 36 45 55 56 60 66 66 66 66 62 59 59 59 58 59 62 70 72 71 69 66 62 57 52 48 62 68 73
10 10 8 7 7 7 8 8 8 19 16 18 18 18 19 20 22 25 30 33 35 36 45 53 53 60 66 67 66 64 60 59 60 59 57 59 62 66 70 73 74 72 67 62 58 56 53 55 73
12 14 11 8 8 8 9 11 9 20 16 17 17 18 20 22 24 31 34 34 36 37 47 52 54 59 65 65 65 61 58 58 59 56 57 58 60 64 69 74 73 71 69 70 68 63 55 51 63
15 14 15 9 8 9 9 12 20 19 17 18 18 19 22 24 27 34 35 36 37 41 48 51 56 59 63 61 58 57 55 56 55 56 58 58 65 69 75 76 77 78 80 75 72 70 64 59 56
14 19 14 11 8 9 10 12 18 17 16 17 18 20 23 26 28 34 34 37 38 44 49 51 53 58 59 55 55 54 54 55 56 57 58 59 64 70 73 79 82 81 83 81 80 74 71 66 60
18 17 15 14 11 11 13 12 18 17 16 17 18 20 25 25 27 34 36 41 41 46 48 49 51 55 55 53 58 55 57 58 57 58 58 64 67 72 77 80 79 83 87 83 82 84 80 81 73
18 17 13 10 8 10 13 14 12 16 17 19 19 23 25 27 29 33 37 40 41 45 48 47 49 52 54 58 60 60 63 61 60 61 65 67 72 74 77 79 82 89 90 88 90 84 83 83 84
16 16 14 12 10 13 15 16 11 10 19 18 20 22 23 27 28 32 35 39 41 45 47 46 49 50 55 62 60 64 66 62 62 64 69 71 75 79 83 85 88 93 97 95 94 92 88 84 82
16 17 16 15 13 11 12 13 12 11 17 16 18 21 25 28 30 32 34 38 39 44 47 47 49 48 56 63 65 72 68 68 67 71 74 77 78 81 84 87 89 93 94 98 97 96 96 89 80
18 14 16 16 18 19 11 21 12 16 19 22 27 28 29 31 33 33 35 37 37 42 46 49 48 47 56 64 71 74 75 74 73 76 78 79 80 81 82 89 93 96 97 100 100 97 97 95 89
17 14 18 18 16 18 17 21 14 13 23 28 29 31 33 34 35 35 37 38 38 42 46 49 46 45 56 64 72 75 78 78 79 80 81 82 83 84 84 90 96 99 99 100 100 100 100 100 97
15 16 17 20 23 36 24 23 19 21 24 28 29 33 36 36 36 35 38 39 41 46 49 48 45 44 55 63 71 76 80 82 83 83 85 88 87 89 91 96 98 100 100 100 100 100 100 100 99
19 23 36 34 37 37 19 24 21 31 32 31 40 37 37 38 37 37 42 46 46 50 55 51 46 44 50 59 70 79 83 86 87 89 90 92 94 93 96 98 100 100 100 100 100 100 100 100 100
21 20 32 31 37 32 21 24 30 33 32 31 37 46 37 42 41 53 65 50 51 59 75 63 53 49 55 57 66 77 86 90 90 92 95 96 98 98 96 99 100 100 100 100 100 100 100 100 100
14 19 17 31 31 41 27 19 35 35 40 41 46 47 43 42 52 63 62 53 70 64 87 70 61 60 64 63 63 69 82 90 91 94 97 98 99 99 98 96 100 100 98 98 100 100 100 100 100
18 13 29 35 49 44 26 29 58 70 48 50 93 60 59 45 47 84 81 60 78 70 85 80 68 77 70 73 68 71 76 79 85 93 95 96 97 93 95 99 98 100 100 100 100 100 100 100 100
15 22 25 23 30 46 52 50 48 78 95 90 100 100 86 75 96 71 97 70 67 81 82 63 72 71 77 73 69 73 79 82 87 92 93 94 94 96 94 98 98 100 100 100 100 100 98 100 100
15 21 24 47 38 44 65 66 40 35 56 51 84 100 100 78 100 89 84 77 80 72 83 70 73 74 71 56 65 71 77 82 90 86 87 92 94 94 93 95 98 100 100 97 100 98 98 99 99

GFSSGP_925_rhum_153.txt.gz
RH
5 10 16 24 29 31 27 17 19 25 28 41 52 63 72 76 80 98 87 82 78 85 88 88 84 82 79 77 75 73 73 73 73 72 69 76 79 80 80 77 70 64 65 73 74 80 82 82 73
6 11 18 23 30 33 26 24 28 27 25 21 24 32 43 62 64 83 71 58 58 50 59 70 74 80 82 82 81 78 76 74 72 72 74 70 76 80 80 80 77 72 68 69 74 77 80 78 80
9 16 23 28 30 31 21 24 21 16 15 15 21 25 33 47 45 50 53 51 49 49 36 28 30 36 43 49 58 71 80 80 77 74 74 75 71 70 74 76 78 78 75 72 72 73 77 78 78
14 17 20 23 24 13 15 19 18 15 13 18 26 38 36 37 38 41 46 48 50 54 53 44 34 26 19 15 16 21 36 55 73 80 80 79 78 79 71 70 72 75 78 78 74 72 71 76 82
8 13 22 24 21 11 10 11 17 16 19 19 22 36 44 36 38 41 46 49 51 52 53 57 49 47 39 27 17 16 15 16 18 27 53 74 80 82 79 77 70 68 70 73 75 75 74 75 79
10 13 20 21 16 11 10 9 15 16 20 23 28 30 35 34 38 44 45 47 44 42 40 40 36 36 40 41 30 26 28 30 32 30 22 24 64 75 72 80 79 77 73 70 69 72 75 71 78
10 13 17 16 15 13 10 9 15 15 16 20 20 31 32 34 38 40 41 41 41 39 37 36 33 32 40 42 37 44 41 46 43 40 38 31 28 47 44 57 64 77 78 74 71 68 68 74 75
9 12 12 14 15 12 8 8 8 14 22 20 21 30 34 29 34 36 39 39 39 41 43 42 40 37 44 42 46 47 42 45 43 42 47 37 28 28 30 34 40 42 41 51 76 74 70 68 68
7 14 18 11 12 10 8 8 8 14 20 23 25 28 26 25 29 34 37 36 39 43 46 48 47 43 41 45 53 45 46 45 42 52 50 42 42 38 39 45 44 42 45 51 69 76 77 76 70
12 21 13 10 10 9 8 9 8 14 20 25 25 25 22 22 24 27 30 36 41 45 48 50 51 50 46 57 54 49 47 48 55 54 46 50 52 54 51 42 43 43 44 46 47 59 69 76 77
11 14 10 9 12 10 8 7 8 10 26 21 27 26 24 22 24 27 31 35 41 46 45 49 52 52 55 56 57 54 56 60 56 52 57 58 57 54 54 53 52 49 50 48 48 50 56 81 78
11 10 9 9 9 9 10 9 20 26 27 23 23 24 24 27 28 30 34 35 39 45 47 51 54 58 58 61 59 60 60 60 58 61 56 59 63 63 62 65 69 67 65 62 57 58 55 55 62
11 11 10 8 8 8 8 10 24 27 23 22 21 22 25 29 30 32 35 36 37 46 50 54 57 60 56 56 58 59 58 57 55 57 60 58 58 62 69 73 74 74 70 71 71 68 62 57 52
13 13 14 11 11 8 9 9 19 24 22 22 22 26 28 29 36 36 36 36 38 47 51 54 59 60 56 57 57 54 57 53 58 58 56 58 64 67 66 73 79 81 86 88 86 80 73 66 62
16 19 18 15 13 10 11 12 13 23 21 23 24 27 29 34 37 38 36 37 40 48 52 54 57 57 56 56 55 54 55 56 56 56 58 59 62 66 67 70 77 80 76 74 76 78 79 80 73
20 20 26 17 14 12 11 18 26 22 21 24 26 28 31 38 38 36 36 38 46 49 51 52 54 56 54 56 55 56 57 57 58 60 61 67 64 71 76 77 75 79 80 82 84 84 84 85 84
25 29 25 18 12 12 12 17 28 24 22 24 28 31 35 38 39 37 40 40 46 48 49 50 52 54 55 57 57 60 61 62 62 62 65 63 70 74 74 78 80 80 83 85 87 87 87 93 88
29 25 24 17 12 13 15 16 26 25 22 24 31 34 36 39 44 39 41 42 46 48 48 49 50 54 58 58 62 63 64 64 64 65 66 72 73 77 77 82 85 86 89 91 84 82 85 86 86
20 22 23 20 13 14 18 17 25 24 23 27 34 35 37 42 40 38 42 42 46 48 47 48 50 56 60 63 68 67 69 68 68 70 75 77 80 83 84 89 89 92 94 96 98 97 92 84 83
21 22 23 18 14 15 18 20 18 21 22 26 33 34 40 41 42 42 42 42 46 47 48 49 48 58 62 67 69 73 73 73 74 79 81 83 80 79 85 88 91 93 94 95 94 97 98 93 81
21 21 23 22 18 17 16 18 15 12 22 26 32 33 37 41 44 44 43 42 45 48 49 49 47 57 63 69 68 71 78 81 83 85 86 85 85 84 90 86 89 95 97 100 99 99 99 97 92
26 18 20 23 27 32 16 27 18 19 28 35 37 40 44 43 44 43 43 44 45 48 50 48 48 55 67 70 72 77 84 85 86 86 87 89 89 86 93 91 94 97 99 100 100 98 100 100 97
21 18 20 22 26 26 23 32 22 18 39 41 42 41 48 47 48 51 43 45 47 48 50 47 46 54 60 70 73 78 84 87 86 88 90 91 91 89 96 95 96 98 97 100 99 100 100 100 99
18 20 24 25 30 55 30 34 41 39 42 42 42 47 45 48 48 47 42 47 50 47 52 49 46 50 54 69 76 79 85 87 91 91 92 94 94 96 97 97 97 100 100 100 100 99 100 100 100
18 26 53 60 65 51 25 31 51 44 36 40 53 51 51 49 51 58 56 55 54 49 62 58 50 57 57 66 74 77 86 88 92 95 97 97 98 96 100 98 97 99 100 99 99 100 100 100 100
25 31 60 44 64 50 28 33 70 50 48 48 50 58 48 55 67 72 61 62 61 41 67 63 58 63 63 66 72 76 81 86 90 96 96 97 99 99 92 97 97 99 100 100 100 100 100 100 100
19 25 20 37 43 66 49 37 51 46 54 56 54 55 59 62 78 77 62 76 61 44 69 67 55 68 65 69 69 76 80 80 86 89 89 94 96 100 91 90 97 98 100 100 100 100 100 100 100
22 20 44 67 56 58 46 38 78 72 64 66 84 66 66 69 82 82 71 84 72 61 55 68 49 58 63 69 59 68 64 58 64 78 86 94 96 95 88 92 99 98 99 100 100 100 100 100 100
27 32 28 36 47 67 77 71 62 70 81 74 79 94 76 80 92 86 80 79 78 73 63 54 53 52 53 59 54 55 60 65 64 62 78 87 91 92 83 88 100 97 97 100 100 100 100 100 100
21 24 30 74 52 76 80 79 48 58 63 75 81 97 100 86 96 94 81 81 76 81 81 63 67 64 58 54 52 55 62 67 70 68 71 75 82 86 80 85 96 100 94 99 100 100 100 98 99

GFSSGP_925_rhum_156.txt.gz
RH
3 6 15 24 29 35 32 20 23 31 61 61 65 74 88 85 78 91 99 89 86 90 90 85 86 84 83 82 79 77 75 72 70 70 67 70 73 74 76 75 71 71 70 73 76 80 79 82 83
8 10 19 28 34 36 33 26 36 45 55 43 35 43 59 86 72 78 78 62 46 47 57 62 61 62 64 69 78 82 82 81 80 78 77 76 72 75 78 78 75 72 70 72 73 77 79 81 82
11 17 23 31 39 33 32 25 22 39 36 20 32 37 45 59 54 60 56 54 52 41 33 36 36 27 21 22 26 35 48 64 74 81 82 81 82 84 79 77 79 78 72 72 74 74 76 78 78
10 16 23 27 25 20 20 23 16 20 20 27 37 48 42 44 44 55 56 54 52 53 50 46 48 44 39 22 22 19 20 19 20 30 50 70 77 82 82 84 80 76 79 79 75 76 74 74 76
10 17 22 25 22 17 11 14 18 20 24 30 29 49 50 49 50 51 51 49 48 49 47 42 46 46 42 41 40 40 39 32 24 23 23 32 65 70 68 73 79 85 83 80 77 78 76 75 76
11 16 20 20 17 13 10 17 20 21 25 30 37 39 47 48 43 45 39 36 36 39 42 41 45 47 41 46 43 44 46 43 42 38 29 27 27 36 41 58 60 63 65 68 78 79 74 74 75
10 14 14 15 16 13 10 14 18 22 24 26 27 39 46 47 42 38 40 42 44 43 41 40 42 45 43 48 44 43 44 42 46 51 43 36 28 26 27 31 41 46 45 45 48 70 82 80 72
12 14 12 13 17 12 9 9 16 21 25 22 26 38 48 45 43 44 47 49 47 46 43 40 38 38 41 42 46 44 45 48 54 48 46 44 36 34 33 31 32 39 41 46 51 66 83 86 87
10 17 18 11 11 10 9 8 16 22 28 28 28 29 32 45 46 49 52 52 49 45 44 42 40 42 47 46 45 44 51 51 46 45 47 44 46 43 41 41 40 36 37 39 44 48 52 66 83
16 22 13 10 10 10 9 9 11 22 27 31 31 31 39 46 48 46 48 54 51 48 49 48 48 47 48 50 52 53 54 50 50 50 52 55 54 52 50 49 48 46 43 38 36 39 44 51 64
13 16 12 9 9 9 10 9 18 23 26 28 33 32 31 34 36 41 49 53 51 49 50 53 53 51 51 54 55 55 53 51 55 59 58 54 52 54 55 56 56 58 59 55 52 46 46 49 54
11 10 10 10 9 9 10 12 27 26 25 25 27 30 30 35 39 42 47 49 49 49 54 58 56 51 53 53 53 57 53 57 57 54 55 55 59 59 60 60 62 66 70 72 73 73 68 61 55
14 13 13 13 10 10 9 13 27 30 28 26 25 28 34 40 43 41 42 47 48 51 56 60 55 53 54 53 54 55 55 54 55 57 61 62 62 62 64 62 63 65 65 65 66 67 72 75 70
18 17 18 15 13 10 10 21 24 26 26 26 28 34 39 41 42 40 40 47 50 53 56 57 54 54 55 53 57 57 56 57 59 60 63 63 65 68 69 70 73 72 71 68 69 71 73 75 77
18 22 21 19 17 15 11 14 17 27 26 28 31 39 44 43 39 40 41 49 50 53 54 55 53 54 55 55 57 57 59 60 60 62 62 61 69 68 71 72 75 79 81 82 85 85 88 88 84
22 22 27 19 16 14 11 18 23 27 26 32 36 40 44 44 41 42 45 49 50 51 53 52 52 54 54 58 58 57 62 61 63 60 62 66 68 74 74 77 85 85 85 85 85 84 86 89 94
29 30 28 22 14 12 13 16 29 27 26 31 36 44 45 48 47 44 46 48 49 49 50 50 54 56 56 55 57 56 61 64 65 66 70 72 74 78 81 89 86 83 91 93 93 91 87 83 84
32 30 25 22 13 13 14 16 31 28 26 29 40 45 48 49 52 46 47 48 48 48 49 49 56 59 57 57 53 53 63 69 68 75 76 77 76 78 88 88 88 91 94 92 94 94 91 95 83
28 24 25 22 18 15 18 19 33 29 28 34 44 45 50 49 49 46 48 48 48 48 49 49 58 61 59 61 58 59 69 75 76 81 82 83 83 80 92 94 88 92 97 96 97 97 97 94 92
24 24 25 21 17 18 18 18 27 32 26 30 40 46 50 51 53 52 51 49 50 50 50 49 62 64 65 64 63 63 74 79 82 86 88 90 89 83 85 94 91 96 97 98 98 99 99 97 92
24 25 23 23 21 19 18 21 15 20 25 35 35 44 46 50 53 53 55 54 51 52 49 53 64 66 66 67 61 58 71 80 87 88 90 93 91 90 90 96 93 93 99 100 100 100 100 98 96
29 21 22 23 29 33 18 34 18 21 42 37 42 47 50 49 50 52 57 57 53 51 47 55 58 67 69 68 67 68 84 90 88 90 92 92 94 96 93 96 89 94 97 100 100 99 99 100 98
25 20 21 21 25 27 22 26 24 41 51 50 51 51 52 52 53 56 57 54 54 51 48 50 50 57 69 70 71 67 82 86 88 90 95 96 98 97 85 90 94 97 98 99 100 99 99 100 100
20 21 23 24 29 44 30 31 40 48 50 50 48 49 49 54 52 55 56 52 52 53 51 50 50 56 68 70 68 66 80 86 87 89 94 99 98 98 80 93 96 98 100 100 100 99 100 99 100
20 31 50 56 62 46 27 35 53 59 42 44 56 51 48 49 51 59 62 59 54 56 60 55 55 60 68 71 70 70 73 76 90 91 97 99 100 98 84 98 98 100 100 98 100 99 98 99 100
26 34 58 59 65 45 34 39 70 57 54 52 51 57 50 59 57 69 71 63 52 60 64 59 55 62 68 68 70 70 65 72 83 84 92 91 97 92 86 100 100 100 99 99 99 97 98 98 99
23 37 31 42 49 65 52 61 55 53 57 56 57 55 63 69 74 81 72 66 55 62 63 54 50 60 65 58 54 53 44 55 72 76 76 76 79 83 83 99 100 100 96 99 99 100 100 100 99
21 25 40 69 52 53 52 49 81 74 69 68 78 69 72 74 78 85 87 74 60 54 64 47 43 56 61 50 52 55 62 53 58 64 71 70 68 72 75 92 100 93 95 95 98 100 100 100 97
28 36 32 35 58 66 76 68 65 74 78 74 84 85 75 80 85 86 92 79 71 57 51 46 45 52 54 51 56 63 69 67 61 64 62 54 59 71 77 88 100 94 76 92 90 100 100 100 100
26 31 35 69 50 76 78 77 51 62 62 68 73 83 87 83 91 91 92 88 82 77 54 54 55 55 54 53 57 66 73 71 68 62 67 68 55 67 81 87 98 100 62 76 86 99 99 100 100

GFSSGP_925_rhum_159.txt.gz
RH
8 11 18 24 26 36 32 24 20 51 65 66 70 68 87 90 78 90 96 86 88 87 86 88 86 83 85 84 83 82 82 81 79 76 76 76 79 84 86 87 85 80 76 76 80 78 78 77 80
11 14 20 31 34 36 42 28 45 54 70 46 41 56 70 91 75 92 76 49 52 57 64 69 53 50 53 57 61 65 71 75 81 82 82 81 85 83 82 84 88 89 81 76 72 76 78 74 75
11 17 23 35 43 34 39 26 54 61 39 26 44 46 51 70 60 67 56 51 47 52 57 62 50 37 38 32 28 27 24 29 36 46 64 78 81 83 84 85 87 87 88 87 82 77 78 75 71
12 15 25 29 28 24 26 26 47 51 30 37 45 55 47 52 50 59 61 58 56 57 49 53 43 55 75 75 80 74 43 32 25 24 24 41 70 71 71 72 82 87 88 87 85 87 85 82 77
10 19 22 22 20 19 13 23 27 25 32 35 40 57 56 58 59 59 57 53 48 46 43 45 49 47 72 81 82 60 47 44 31 25 24 24 25 39 48 62 63 65 66 65 71 82 86 84 85
12 17 18 18 16 13 17 20 22 28 34 42 50 50 55 58 56 54 44 42 43 40 40 44 44 47 49 45 47 46 47 46 38 34 29 29 28 26 27 30 45 51 53 52 53 59 78 87 87
12 15 15 15 16 14 17 15 23 26 28 32 35 54 57 54 55 48 44 42 40 38 36 37 40 45 44 37 39 39 41 45 47 46 39 35 35 35 35 34 44 40 41 44 47 52 72 85 90
15 15 14 14 16 14 9 14 21 25 29 27 35 56 62 55 54 49 47 47 43 40 36 36 36 41 39 37 40 46 45 44 44 46 46 45 40 37 36 38 49 62 67 44 38 42 48 54 67
13 19 19 12 12 10 9 11 21 27 30 32 33 39 45 60 56 52 53 51 46 43 42 41 41 42 42 44 48 48 48 49 48 48 49 44 44 43 43 44 52 56 73 54 47 40 36 41 46
17 21 15 11 10 10 10 11 22 27 32 36 50 52 57 59 58 59 57 58 53 52 51 48 46 48 50 52 52 50 51 52 50 48 45 43 42 43 44 43 46 44 53 45 44 43 40 38 40
15 17 13 10 10 10 11 15 21 28 28 34 52 58 56 56 51 54 58 53 54 56 55 52 49 50 50 51 53 50 50 48 47 46 46 46 46 46 44 44 43 44 48 45 43 40 42 44 50
12 12 11 10 10 10 10 19 26 28 27 33 44 51 48 45 49 55 60 56 57 59 58 53 52 51 50 53 52 51 50 53 55 55 54 52 52 52 53 53 53 53 56 56 55 54 54 48 45
15 15 15 13 13 11 10 17 23 31 35 33 33 38 42 46 48 52 54 55 56 59 57 52 53 52 53 54 54 54 56 57 57 55 53 52 52 54 56 59 64 66 67 66 70 74 72 72 69
20 19 22 19 14 12 11 26 23 28 32 34 37 46 47 48 50 54 56 56 55 58 56 53 54 54 53 53 54 55 57 56 55 56 57 56 58 61 64 69 75 77 76 80 81 82 85 85 84
21 23 23 20 18 20 14 24 26 31 31 36 43 48 49 47 46 50 52 54 54 57 55 55 55 54 53 54 54 57 59 58 59 59 60 61 64 69 73 76 75 76 74 81 94 93 86 86 87
27 24 28 19 17 16 12 20 19 33 32 40 51 49 48 50 49 51 52 53 55 54 52 54 55 55 54 54 54 57 60 59 61 61 61 63 64 69 78 82 82 77 78 81 87 95 94 93 89
33 32 29 25 14 14 13 18 24 33 31 41 50 52 52 56 57 56 53 52 52 51 53 57 57 57 56 51 51 58 61 59 61 62 66 67 66 72 83 91 83 86 89 89 92 96 100 98 95
34 32 29 26 18 14 14 16 31 34 31 39 56 57 56 57 59 57 54 52 52 50 54 60 60 59 56 49 45 53 58 61 64 71 76 74 74 72 80 95 83 92 99 97 97 98 96 97 98
30 34 34 26 19 17 20 20 23 34 33 46 56 56 58 58 56 56 54 52 51 50 53 60 59 62 55 49 45 57 75 70 71 76 77 80 80 78 84 96 89 95 97 98 99 99 98 98 97
39 40 34 24 20 21 22 22 22 35 31 37 49 54 57 62 63 62 58 54 52 52 57 64 63 64 63 58 54 63 65 74 74 77 80 85 85 84 91 98 94 98 98 98 99 100 99 97 97
35 35 29 26 21 21 18 24 18 30 29 36 44 46 53 59 62 64 63 59 55 53 62 65 66 66 65 60 48 40 49 63 74 78 84 87 87 84 85 95 99 97 99 100 100 100 100 99 98
49 27 26 26 29 36 20 33 21 23 39 40 45 56 59 59 59 62 66 63 55 58 60 62 65 62 62 57 49 52 75 84 87 87 87 93 88 81 84 91 99 100 100 99 99 100 100 100 99
39 28 27 26 28 28 26 30 26 43 48 47 50 55 58 59 59 64 63 60 57 54 52 53 55 57 60 57 53 56 66 79 80 83 87 99 94 83 84 89 100 100 100 100 95 100 100 99 100
22 23 30 37 33 42 29 25 28 51 49 57 56 55 57 56 56 58 58 61 60 53 53 53 52 61 65 60 54 54 56 69 73 77 86 89 90 84 87 94 100 100 98 100 96 100 100 99 98
21 29 48 55 61 43 30 35 27 60 57 51 61 58 56 53 56 58 60 64 66 63 55 53 55 65 67 62 56 51 54 65 69 77 77 67 83 89 91 100 100 100 100 99 98 98 98 98 99
30 31 51 50 66 47 37 39 63 62 52 51 53 59 52 54 53 60 67 62 68 63 54 54 57 68 67 55 48 34 43 55 63 67 64 63 79 87 90 100 90 91 94 100 100 98 99 98 98
32 38 31 48 52 68 54 59 60 62 64 62 61 59 59 58 69 78 72 62 68 61 57 53 57 64 54 48 42 46 42 44 50 55 56 60 73 84 80 93 77 75 85 91 100 100 100 100 97
25 28 41 67 56 54 52 50 73 79 74 71 78 67 71 66 69 84 83 67 68 63 54 44 48 55 48 49 53 59 55 51 50 44 44 59 70 78 85 100 82 49 61 80 94 100 98 100 100
30 34 38 46 52 63 73 68 60 75 77 72 80 84 72 73 84 90 88 71 65 62 49 38 48 51 50 55 64 67 65 61 54 59 54 52 68 80 87 89 88 62 56 61 74 99 96 100 100
25 35 38 68 49 77 78 63 51 66 66 64 72 83 80 78 92 92 90 83 71 54 47 44 53 54 54 59 67 72 72 69 60 48 52 48 64 79 87 87 90 88 66 66 74 94 98 98 100

GFSSGP_925_rhum_162.txt.gz
RH
10 14 20 24 24 36 32 26 22 63 72 70 69 66 78 89 79 89 90 87 87 83 83 82 89 89 87 82 81 82 87 83 80 79 82 82 82 84 88 93 97 94 87 81 78 80 82 82 84
12 16 21 32 31 42 47 30 37 56 78 51 49 61 80 91 80 86 67 67 72 74 74 77 80 83 77 50 43 48 59 60 68 79 82 81 84 84 83 85 88 92 96 94 87 83 82 80 79
13 18 25 36 44 34 43 29 66 71 36 37 53 54 60 80 71 63 61 65 58 63 63 81 83 86 86 80 58 37 30 20 26 36 47 72 78 76 75 78 83 87 87 88 92 95 90 88 82
12 15 26 31 29 24 29 42 68 57 34 43 50 63 53 59 56 62 67 60 48 50 52 74 82 90 89 87 86 86 52 41 37 49 49 50 48 58 62 69 71 74 75 76 76 82 87 89 88
10 20 23 22 19 19 16 35 63 39 35 43 44 61 61 62 65 65 59 47 39 43 45 43 50 66 76 87 87 90 82 73 74 55 47 44 43 40 36 37 53 62 63 63 61 63 71 80 84
12 17 19 19 15 14 20 29 26 31 41 50 56 57 61 63 64 59 46 42 40 40 43 42 44 43 38 43 52 57 84 67 55 45 38 36 34 35 39 42 54 42 42 51 54 53 58 77 86
12 16 16 14 16 16 20 20 27 32 40 42 43 62 64 63 62 52 47 43 41 39 38 40 40 38 37 41 47 58 50 46 42 40 34 35 37 37 43 44 57 51 53 44 39 42 48 55 64
16 16 15 15 16 15 11 20 23 28 34 35 43 67 73 67 58 53 50 45 41 40 38 38 37 36 38 41 42 40 38 37 36 35 34 34 34 34 34 36 45 52 65 44 42 35 30 34 43
14 20 19 13 15 11 10 15 25 29 34 39 50 48 58 68 58 52 50 47 47 47 44 42 43 44 44 44 45 41 42 40 35 34 33 31 32 32 33 35 36 36 46 34 35 34 34 31 29
18 21 16 12 11 10 10 14 28 30 36 54 70 64 67 64 57 55 55 57 53 50 46 41 37 36 36 36 36 34 34 32 32 30 30 32 34 34 34 34 36 37 42 36 33 31 31 31 31
16 17 14 10 10 10 11 18 20 34 32 44 68 70 63 62 58 58 58 56 57 54 45 43 42 42 42 42 42 40 38 37 36 35 34 35 34 35 36 38 40 42 42 42 45 46 44 41 40
13 13 13 11 12 10 12 23 26 27 24 36 58 60 59 58 60 60 60 60 56 52 50 49 48 48 50 48 46 46 42 43 41 41 40 39 39 41 44 48 50 51 52 54 58 60 64 65 62
15 17 17 16 20 12 12 20 25 35 46 53 58 57 56 58 60 56 55 59 58 55 53 54 51 49 50 47 50 49 49 47 47 44 44 43 44 46 50 52 54 56 57 63 66 72 78 83 76
21 21 22 22 18 13 12 24 23 37 45 57 54 55 56 56 59 60 59 62 60 56 53 56 52 53 51 48 49 51 52 52 49 47 47 47 48 52 57 59 61 63 66 70 74 80 86 84 84
24 24 24 22 20 21 16 20 29 39 42 49 53 54 55 55 57 60 58 61 60 57 57 55 54 54 49 50 51 51 51 51 49 50 51 53 55 60 66 69 66 70 72 78 81 85 91 99 96
27 27 28 18 18 16 16 24 28 39 42 53 58 54 53 55 55 55 58 59 59 56 59 59 58 56 52 52 55 57 57 56 57 59 60 60 59 61 64 72 70 75 80 89 92 98 99 96 94
34 32 30 26 14 14 14 19 31 39 40 53 55 54 56 60 60 60 60 58 56 56 59 58 58 56 54 53 55 56 56 56 61 63 65 67 66 67 71 81 76 83 97 97 100 98 98 98 96
36 34 31 30 21 16 16 17 34 38 40 49 60 62 60 62 65 63 60 56 55 57 59 59 58 57 54 51 51 55 56 56 58 62 68 70 69 69 76 83 82 86 98 98 97 98 97 98 97
34 35 39 34 24 20 22 22 20 42 42 56 62 60 61 63 64 63 58 57 56 61 62 61 58 57 50 42 40 50 61 64 65 70 73 74 71 69 77 86 91 99 100 99 99 99 98 96 98
42 45 48 36 26 23 24 24 22 41 36 43 54 58 62 69 71 68 62 59 56 64 65 63 60 57 51 47 48 58 63 68 62 65 71 77 73 73 78 84 94 100 100 100 99 99 99 99 100
45 48 45 38 26 23 22 27 21 32 34 43 48 53 58 67 71 70 68 61 58 68 68 62 60 57 55 48 38 42 53 61 60 65 73 84 77 75 80 85 96 100 100 100 100 100 100 99 98
56 38 32 30 30 41 22 38 22 24 41 44 51 57 62 66 66 67 70 67 60 67 70 66 62 61 59 47 36 38 54 63 76 74 72 76 75 74 82 89 95 100 99 99 100 100 99 100 98
44 37 41 37 36 31 28 34 30 40 41 47 53 58 66 67 68 68 67 61 62 63 67 66 62 62 55 43 35 33 42 59 56 55 49 49 66 72 81 93 93 100 99 99 100 100 100 99 100
24 26 35 42 36 44 34 33 34 44 40 54 59 63 67 67 65 63 63 62 61 60 61 62 61 60 54 43 35 34 42 54 54 53 41 42 53 61 76 98 87 99 98 100 100 100 100 99 99
24 30 48 57 60 47 31 32 30 47 58 59 64 66 65 61 63 62 65 68 65 60 60 60 60 64 57 40 28 35 50 48 51 56 52 55 57 60 59 64 76 89 90 93 100 98 100 100 99
45 41 56 57 66 49 38 47 46 61 64 55 60 66 61 64 60 59 64 69 68 61 62 61 60 59 47 31 29 38 43 46 49 47 48 63 69 77 58 52 53 71 85 90 97 90 99 100 100
51 45 37 45 54 70 53 49 58 62 68 68 70 67 70 64 61 68 74 69 69 63 61 54 48 50 41 39 46 44 42 37 36 35 45 61 72 80 68 59 48 46 55 79 91 90 91 100 100
38 32 48 70 61 59 54 48 68 78 74 76 81 75 68 64 71 77 81 70 68 63 53 46 50 44 45 50 55 54 50 44 45 37 41 61 73 74 72 63 54 54 52 54 66 78 83 98 99
33 36 37 45 56 55 69 68 60 66 78 78 83 80 71 72 81 87 85 68 67 59 47 46 55 45 54 60 63 62 61 52 40 36 42 57 72 79 82 79 74 66 64 59 60 87 88 100 100
27 36 41 58 53 75 78 70 40 58 72 71 74 80 80 76 92 91 84 76 76 66 52 49 55 51 57 64 67 67 67 64 52 40 46 54 66 76 83 78 80 77 73 71 67 78 90 98 100